Location: Rockford
(42.2710°N, 89.0940°W)
Time: 17:22:59
(UTC-05:00)

Daily predictions for brighter satellites

Satellite Brightness Start Highest point End
(mag) Time Altitude Azimuth Time Altitude Azimuth Time Altitude Azimuth
METEOR-M 4.3 19:07:32 10° SSE 19:12:54 86° W 19:18:17 10° NNW
Cosmos 2074 Rocket 4.4 19:09:26 10° SSE 19:15:05 39° E 19:20:45 10° NNE
Cosmos 1125 Rocket 4.5 19:10:59 10° N 19:15:34 28° ENE 19:20:07 10° ESE
Cosmos 2228 3.1 19:15:49 10° S 19:20:04 54° E 19:24:18 10° NNE
FREGAT/IRIS 3.4 19:17:31 10° SE 19:20:15 32° ENE 19:23:00 10° N
Cosmos 1356 Rocket 3.9 19:17:48 10° N 19:21:55 43° ENE 19:26:01 10° SSE
Cosmos 1709 Rocket 4.3 19:15:41 10° S 19:22:02 80° W 19:28:28 10° N
Geosat 4.1 19:19:53 10° SE 19:24:48 58° ENE 19:29:45 10° NNW
Cosmos 1544 4.1 19:22:50 10° SE 19:25:44 23° E 19:28:41 10° NE
ATLAS 2AS CENTAUR R/B 4.3 19:23:49 10° NNW 19:30:17 25° NNE 19:36:22 10° E
Cosmos 1378 3.2 19:28:49 10° N 19:32:37 83° W 19:36:22 10° S
Cosmos 1707 3.0 19:28:44 10° NNW 19:32:40 75° W 19:36:35 10° S
COSMOS 2406 3.4 19:27:29 10° S 19:32:57 50° ESE 19:38:29 10° NE
Meteor 1-22 Rocket 4.4 19:28:40 10° SSE 19:34:06 48° E 19:39:22 10° NNE
Meteor 2-5 Rocket 3.8 19:30:16 10° N 19:36:10 89° E 19:41:53 10° S
USA 81 4.0 19:31:41 10° N 19:37:00 85° E 19:42:17 10° S
Cosmos 1766 3.6 19:33:41 10° SSE 19:37:22 41° E 19:41:04 10° NNE
Cosmos 1812 Rocket 4.5 19:34:40 10° SSE 19:38:26 28° E 19:42:15 10° NNE
In-Cosmos 22 4.5 19:33:55 10° N 19:39:28 50° ENE 19:45:03 10° SSE
Cosmos 841 Rocket 3.5 19:34:32 10° SSW 19:39:40 89° WNW 19:44:51 10° NNE
NOSS 3-1 (A) 4.1 19:33:00 10° NW 19:40:39 79° NE 19:49:05 10° SE
Cosmos 1953 Rocket 4.4 19:36:46 10° NNW 19:41:00 54° W 19:45:11 10° S
Cosmos 1674 4.4 19:39:15 10° NE 19:41:26 15° ENE 19:41:51 15° E
Resurs 01 Rocket 2.7 19:38:07 11° ESE 19:41:27 25° ENE 19:45:04 10° NNE
GP-B 4.2 19:38:29 10° NNE 19:42:04 24° E 19:45:39 10° SE
Cosmos 2058 Rocket 3.4 19:42:02 10° SSW 19:46:21 71° W 19:50:45 10° N
FengYun 1-2 T 4.2 19:42:30 10° SSE 19:48:04 73° ENE 19:53:37 10° N
NOSS 3-1 (C) 4.3 19:41:01 10° NW 19:48:40 76° WSW 19:57:06 10° SSE
SL-27 R/B 3.5 19:47:43 10° SSE 19:50:43 25° E 19:53:46 10° NE
Cosmos 540 Rocket 3.4 19:47:34 10° S 19:52:34 60° ESE 19:57:36 10° NNE
Cosmos 2184 Rocket 4.0 19:47:36 10° S 19:53:54 76° E 20:00:17 10° N
Elektron 1 4.4 19:53:14 10° NNW 19:56:28 38° NE 19:57:32 27° E
Cosmos 1758 4.2 19:53:51 10° SSE 19:57:18 28° E 20:00:45 10° NNE
HJ-1C 3.2 19:55:34 10° SSE 19:58:54 74° ENE 20:02:16 10° N
Cosmos 1805 3.2 20:05:21 10° S 20:09:10 58° E 20:13:01 10° NNE
Cosmos 2327 Rocket 4.5 20:06:36 10° S 20:12:43 85° W 20:18:49 10° N
Cosmos 1939 Rocket 4.0 20:13:42 24° ENE 20:13:42 24° ENE 20:16:37 10° NNE
CZ-2D R/B 3.1 20:13:42 20° SSE 20:16:15 71° ENE 20:20:04 10° N
Cosmos 292 Rocket 4.0 20:11:52 10° S 20:16:27 44° ESE 20:21:05 10° NNE
Cosmos 2278 4.5 20:13:22 10° N 20:18:29 33° ENE 20:20:04 28° E
Milstar 3 Cent rocket 3.7 20:27:23 10° SSW 20:30:19 15° S 20:30:39 15° S
ISS -3.8 20:27:20 10° SW 20:30:17 66° S 20:30:17 66° S
Spot 2 Rocket 3.4 20:28:02 25° SSE 20:30:56 71° ENE 20:35:59 10° N
BREEZE-M DEB (TANK) 3.3 20:30:28 10° NW 20:31:29 20° NNW 20:31:29 20° NNW
Cosmos 962 Rocket 4.5 20:27:44 10° S 20:33:59 62° E 20:40:16 10° NNE
Cosmos 1656 4.3 20:29:47 10° N 20:35:02 37° ENE 20:35:49 35° ENE
Cosmos 1697 Rocket 3.7 20:33:23 10° N 20:38:14 28° NE 20:38:32 28° ENE
Cosmos 1980 Rocket 3.8 20:35:58 10° N 20:39:51 19° NE 20:39:51 19° NE
Cosmos 1076 Rocket 3.9 20:39:31 10° N 20:43:06 46° NE 20:43:06 46° NE
SJ 16-02 1.5 20:40:17 10° NNW 20:44:40 68° WSW 20:46:14 38° S
Cosmos 1953 2.3 20:47:22 44° SSW 20:48:36 83° W 20:52:42 10° N
ERS-1 Rocket 4.4 20:52:11 23° NE 20:52:11 23° NE 20:54:55 10° N
Resurs 1-3 3.9 20:49:23 32° S 20:51:17 64° WSW 20:55:40 10° NNW
YAOGAN 6 4.4 20:57:08 23° N 20:57:08 23° N 20:58:40 10° N
SJ-11-01 4.1 20:57:06 73° ENE 20:57:06 73° ENE 21:01:47 10° N
Cosmos 2154 Rocket 4.4 20:53:14 10° SSW 20:59:23 63° W 21:05:37 10° N
Envisat 3.3 21:01:14 33° S 21:03:27 63° WSW 21:08:30 10° NNW
SL-16 R/B 4.4 21:05:33 10° NNE 21:07:07 12° NE 21:07:07 12° NE
Cosmos 2341 Rocket 4.2 21:06:56 10° SSW 21:13:06 69° W 21:19:20 10° N
FALCON 9 R/B 3.2 21:12:49 10° WSW 21:15:44 34° SSW 21:15:44 34° SSW
Cosmos 1674 4.2 21:13:45 10° NNW 21:16:47 33° WNW 21:16:47 33° WNW
Resurs 01 Rocket 3.3 21:15:42 21° SW 21:17:47 31° W 21:21:44 10° NW
ATLAS 2AS CENTAUR R/B 2.8 21:14:41 10° NNW 21:22:45 74° NE 21:23:49 65° ESE
Meteor 2-21 4.4 21:22:45 42° SSW 21:24:59 79° W 21:31:09 10° N
H-2A R/B 4.0 21:28:13 18° NNE 21:28:13 18° NNE 21:29:49 10° N
Cosmos 1959 Rocket 4.4 21:26:17 74° NE 21:26:17 74° NE 21:32:04 10° N
Cosmos 2369 3.8 21:22:59 10° NNW 21:28:37 70° WSW 21:28:37 70° WSW
Cosmos 2366 rocket 4.1 21:34:13 63° NNE 21:34:13 63° NNE 21:39:28 10° N
Cosmos 2218 Rocket 4.0 21:38:40 77° NNW 21:38:40 77° NNW 21:44:30 10° N
Meteor 2-15 Rocket 4.5 21:33:12 10° NNW 21:39:04 74° WNW 21:39:04 74° WNW
Cosmos 2285 Rocket 4.4 21:35:00 10° SSW 21:41:20 62° WNW 21:47:45 10° NNE
Cosmos 2082 Rocket 4.4 22:01:05 15° NNE 22:01:05 15° NNE 22:02:02 10° NNE
Cosmos 2322 Rocket 4.2 22:09:32 10° N 22:11:28 20° N 22:11:28 20° N
Cosmos 1697 Rocket 4.2 22:17:00 10° NW 22:20:16 32° WNW 22:20:16 32° WNW
Cosmos 1980 Rocket 3.8 22:18:52 10° NNW 22:21:38 30° NNW 22:21:38 30° NNW
SL-16 R/B 4.5 22:47:26 10° NNW 22:48:58 19° NNW 22:48:58 19° NNW
